K5RG-3 Weather Reports


time (UTC)temp
C
wind
direction
speed
KPH
gust
KPH
rain 1hr
cm
rain 24hr
cm
rain mn
cm
humidity
%
barometer
mb
20260506140007 25 73 0.0 0.0 0.00 0.00 0.00 92 1008.1
20260506134502 25 73 0.0 0.0 0.00 0.00 0.00 92 1008.0
20260506133059 25 73 0.0 0.0 0.00 0.00 0.00 93 1008.2
20260506131559 25 69 0.0 0.0 0.00 0.00 0.00 93 1008.2
20260506130118 25 69 0.0 0.0 0.00 0.00 0.00 93 1008.1
20260506124552 25 55 0.0 0.0 0.00 0.00 0.00 93 1008.0
20260506123050 25 50 0.0 0.0 0.00 0.00 0.00 93 1007.9
20260506121548 25 125 0.0 0.0 0.00 0.00 0.00 93 1007.8
20260506120047 25 124 0.0 0.0 0.00 0.00 0.00 94 1007.6
20260506114548 24 128 0.0 0.0 0.00 0.00 0.00 94 1007.3
20260506113047 24 102 0.0 0.0 0.00 0.00 0.00 94 1007.1
20260506111545 24 192 0.0 0.0 0.00 0.00 0.00 93 1006.9
20260506110051 24 217 0.0 0.0 0.00 0.00 0.00 93 1006.9
20260506104544 24 225 0.0 0.0 0.00 0.00 0.00 93 1007.0
20260506103047 24 225 0.0 0.0 0.00 0.00 0.00 93 1007.0
20260506101553 24 211 0.0 0.0 0.00 0.00 0.00 92 1006.9
20260506100043 24 127 0.0 0.0 0.00 0.00 0.00 92 1006.8
20260506094552 24 202 0.0 0.0 0.00 0.00 0.00 92 1006.6
20260506093044 24 202 0.0 0.0 0.00 0.00 0.00 92 1006.8
20260506091539 25 202 0.0 0.0 0.00 0.00 0.00 92 1006.8
20260506090040 25 202 0.0 0.0 0.00 0.00 0.00 92 1006.7
20260506084538 25 130 0.0 1.6 0.00 0.00 0.00 91 1006.9
20260506083036 25 163 0.0 1.6 0.00 0.00 0.00 91 1007.0
20260506081534 25 121 0.0 1.6 0.00 0.00 0.00 91 1007.1
20260506073029 25 100 0.0 6.4 0.00 0.00 0.00 91 1007.7
20260506071528 25 156 0.0 4.8 0.00 0.00 0.00 91 1007.8
20260506061525 25 182 0.0 1.6 0.00 0.00 0.00 90 1007.7
20260506044524 25 173 0.0 3.2 0.00 0.00 0.00 89 1007.7
20260506043020 25 182 0.0 3.2 0.00 0.00 0.00 89 1007.7
20260506041526 25 146 0.0 6.4 0.00 0.00 0.00 89 1007.7
20260506040017 25 234 0.0 3.2 0.00 0.00 0.00 89 1007.7
20260506034517 25 172 0.0 3.2 0.00 0.00 0.00 89 1007.7
20260506033016 25 173 0.0 3.2 0.00 0.00 0.00 89 1007.5
20260506031522 25 114 0.0 3.2 0.00 0.00 0.00 89 1007.5
20260506030020 25 144 0.0 3.2 0.00 0.00 0.00 90 1007.3
20260506024515 25 150 0.0 3.2 0.00 0.00 0.00 90 1007.2
20260506023015 25 235 0.0 1.6 0.00 0.00 0.00 90 1006.9
20260506021514 25 148 0.0 1.6 0.00 0.00 0.00 89 1006.7
20260506020017 25 174 0.0 3.2 0.00 0.00 0.00 89 1006.5
20260506014518 25 196 0.0 3.2 0.00 0.00 0.00 88 1006.3
20260506013023 25 142 0.0 4.8 0.00 0.00 0.00 87 1006.2
20260506011512 25 100 0.0 8.0 0.00 0.00 0.00 87 1006.0
20260506010015 25 131 1.6 4.8 0.00 0.00 0.00 86 1005.8
20260506004518 25 187 0.0 3.2 0.00 0.00 0.00 86 1005.6
20260506003012 26 162 1.6 4.8 0.00 0.00 0.00 86 1005.6
20260506001512 26 132 0.0 4.8 0.00 0.00 0.00 85 1005.5
20260506000016 26 139 1.6 8.0 0.00 0.00 0.00 85 1005.6
20260505234515 26 146 1.6 8.0 0.00 0.00 0.00 84 1005.4
20260505233009 26 229 0.0 6.4 0.00 0.00 0.00 84 1005.7
20260505231508 26 152 3.2 14.5 0.00 0.00 0.00 83 1005.6
20260505230014 26 168 1.6 8.0 0.00 0.00 0.00 82 1005.7
20260505224507 26 147 0.0 9.7 0.00 0.00 0.00 82 1005.6
20260505223008 26 140 3.2 11.3 0.00 0.00 0.00 82 1005.7
20260505221505 26 221 1.6 6.4 0.00 0.00 0.00 84 1005.8
20260505220013 26 114 3.2 17.7 0.00 0.00 0.00 84 1005.9
20260505214512 26 209 3.2 14.5 0.00 0.00 0.00 84 1006.0
20260505213001 26 176 3.2 14.5 0.00 0.00 0.00 83 1006.1
20260505211619 26 252 1.6 9.7 0.00 0.00 0.00 84 1006.2
20260505210107 26 140 1.6 14.5 0.00 0.00 0.00 84 1006.3
20260505204558 26 209 1.6 14.5 0.00 0.00 0.00 83 1006.6
20260505203055 26 96 0.0 9.7 0.00 0.00 0.00 84 1006.8
20260505201604 26 199 3.2 12.9 0.00 0.00 0.00 84 1007.1
20260505200052 26 146 1.6 14.5 0.00 0.00 0.00 84 1007.2
20260505194554 26 109 1.6 9.7 0.00 0.00 0.00 84 1007.3
20260505193052 26 151 0.0 9.7 0.00 0.00 0.00 83 1007.2
20260505191555 26 182 1.6 12.9 0.00 0.00 0.00 84 1007.3
20260505190104 26 171 0.0 6.4 0.00 0.00 0.00 85 1007.5
20260505184559 26 169 3.2 19.3 0.00 0.00 0.00 85 1007.6
20260505183051 26 160 1.6 8.0 0.00 0.00 0.00 86 1007.8
20260505181545 26 129 1.6 9.7 0.00 0.00 0.00 85 1007.9
20260505180049 26 138 1.6 8.0 0.00 0.00 0.00 85 1007.8
20260505174543 26 138 0.0 8.0 0.00 0.00 0.00 85 1007.9
20260505173045 26 209 1.6 6.4 0.00 0.00 0.00 85 1008.1
20260505171543 25 182 0.0 12.9 0.00 0.00 0.00 86 1008.3
20260505170041 26 167 1.6 9.7 0.00 0.00 0.00 84 1008.2
20260505164541 26 176 1.6 12.9 0.00 0.00 0.00 84 1008.2
20260505163041 26 187 1.6 9.7 0.00 0.00 0.00 83 1008.2
20260505161540 26 171 3.2 16.1 0.00 0.00 0.00 84 1008.1
20260505153039 26 160 1.6 8.0 0.00 0.00 0.00 83 1007.8
20260505151536 26 139 1.6 9.7 0.00 0.00 0.00 84 1007.7